AZU2637 SBSL-SBBE

Flight info

Callsign AZU2637
Flight time 0h 51m
Altitude 33000
Route SAVIO UZ81 DUBRU DCT LIVED
Aircraft A20N/L-L/2000

Departure

Time 2026-05-05 20:10
Airport Marechal Cunha Machado International Airport (SBSL)

Arrival

Time 2026-05-05 21:02
Airport Val de Cans/Júlio Cezar Ribeiro International Airport (SBBE)
Time Latitude Longitude Altitude Speed Heading
2026-05-05 19:43 -2.58428 -44.23607 187 ft 0 kts 340°
2026-05-05 20:01 -2.58439 -44.23603 187 ft 2 kts 338°
2026-05-05 20:01 -2.58453 -44.23598 187 ft 2 kts 340°
2026-05-05 20:01 -2.58467 -44.23593 187 ft 2 kts 341°
2026-05-05 20:01 -2.58482 -44.23593 187 ft 2 kts 21°
2026-05-05 20:02 -2.58494 -44.23602 187 ft 2 kts 52°
2026-05-05 20:02 -2.58499 -44.23609 187 ft 1 kts 70°
2026-05-05 20:02 -2.58501 -44.23614 187 ft 0 kts 70°
2026-05-05 20:04 -2.58500 -44.23614 187 ft 0 kts 70°
2026-05-05 20:04 -2.58500 -44.23612 187 ft 0 kts 69°
2026-05-05 20:04 -2.58499 -44.23609 187 ft 0 kts 69°
2026-05-05 20:04 -2.58498 -44.23607 187 ft 0 kts 69°
2026-05-05 20:05 -2.58495 -44.23601 187 ft 2 kts 69°
2026-05-05 20:05 -2.58485 -44.23573 187 ft 6 kts 70°
2026-05-05 20:05 -2.58468 -44.23527 187 ft 7 kts 70°
2026-05-05 20:05 -2.58450 -44.23477 187 ft 7 kts 72°
2026-05-05 20:06 -2.58458 -44.23429 187 ft 7 kts 127°
2026-05-05 20:06 -2.58479 -44.23387 187 ft 6 kts 96°
2026-05-05 20:06 -2.58464 -44.23348 187 ft 6 kts 52°
2026-05-05 20:06 -2.58432 -44.23318 187 ft 6 kts 39°
2026-05-05 20:07 -2.58392 -44.23288 187 ft 7 kts 38°
2026-05-05 20:07 -2.58349 -44.23253 187 ft 8 kts 38°
2026-05-05 20:07 -2.58299 -44.23214 187 ft 9 kts 38°
2026-05-05 20:07 -2.58244 -44.23171 187 ft 10 kts 38°
2026-05-05 20:08 -2.58186 -44.23123 187 ft 11 kts 40°
2026-05-05 20:08 -2.58125 -44.23071 187 ft 11 kts 39°
2026-05-05 20:08 -2.58047 -44.23051 187 ft 10 kts 34°
2026-05-05 20:08 -2.58064 -44.23018 187 ft 0 kts 221°
2026-05-05 20:09 -2.58221 -44.23148 187 ft 69 kts 218°
2026-05-05 20:10 -2.58799 -44.23611 187 ft 140 kts 218°
2026-05-05 20:10 -2.59646 -44.24287 631 ft 159 kts 219°
2026-05-05 20:10 -2.60484 -44.24952 1404 ft 156 kts 219°
2026-05-05 20:10 -2.61318 -44.25610 2158 ft 155 kts 219°
2026-05-05 20:11 -2.62191 -44.26320 2645 ft 170 kts 220°
2026-05-05 20:11 -2.63150 -44.27105 3076 ft 190 kts 220°
2026-05-05 20:11 -2.64148 -44.28057 3532 ft 211 kts 237°
2026-05-05 20:11 -2.64604 -44.29505 4067 ft 231 kts 269°
2026-05-05 20:12 -2.64157 -44.31088 4653 ft 253 kts 302°
2026-05-05 20:12 -2.62828 -44.32318 5261 ft 272 kts 328°
2026-05-05 20:12 -2.61371 -44.33535 6212 ft 279 kts 307°
2026-05-05 20:12 -2.60492 -44.35268 7186 ft 283 kts 292°
2026-05-05 20:13 -2.59818 -44.37132 8040 ft 291 kts 290°
2026-05-05 20:13 -2.59158 -44.39036 8863 ft 299 kts 290°
2026-05-05 20:13 -2.58454 -44.41026 9740 ft 304 kts 291°
2026-05-05 20:13 -2.57732 -44.43017 10575 ft 310 kts 291°
2026-05-05 20:14 -2.56961 -44.45108 11138 ft 326 kts 291°
2026-05-05 20:14 -2.56157 -44.47267 11776 ft 338 kts 290°
2026-05-05 20:14 -2.55324 -44.49490 12607 ft 342 kts 290°
2026-05-05 20:14 -2.54492 -44.51709 13440 ft 346 kts 290°
2026-05-05 20:15 -2.53645 -44.53964 14252 ft 350 kts 290°
2026-05-05 20:15 -2.52792 -44.56234 15044 ft 354 kts 290°
2026-05-05 20:15 -2.51916 -44.58562 15830 ft 358 kts 290°
2026-05-05 20:15 -2.51043 -44.60883 16588 ft 361 kts 290°
2026-05-05 20:16 -2.50149 -44.63257 17335 ft 365 kts 290°
2026-05-05 20:16 -2.49260 -44.65620 18052 ft 368 kts 289°
2026-05-05 20:16 -2.48365 -44.68009 18746 ft 372 kts 289°
2026-05-05 20:16 -2.47451 -44.70448 19430 ft 375 kts 289°
2026-05-05 20:17 -2.46530 -44.72903 20103 ft 378 kts 289°
2026-05-05 20:17 -2.45606 -44.75358 20762 ft 382 kts 289°
2026-05-05 20:17 -2.44677 -44.77824 21409 ft 385 kts 289°
2026-05-05 20:17 -2.43723 -44.80356 22057 ft 388 kts 289°
2026-05-05 20:18 -2.42761 -44.82907 22693 ft 391 kts 289°
2026-05-05 20:18 -2.41803 -44.85450 23312 ft 394 kts 289°
2026-05-05 20:18 -2.40876 -44.88003 23913 ft 397 kts 286°
2026-05-05 20:18 -2.40073 -44.90644 24502 ft 399 kts 284°
2026-05-05 20:19 -2.39312 -44.93328 25078 ft 402 kts 284°
2026-05-05 20:19 -2.38555 -44.96026 25636 ft 405 kts 284°
2026-05-05 20:19 -2.37788 -44.98752 26180 ft 408 kts 284°
2026-05-05 20:19 -2.37021 -45.01473 26704 ft 410 kts 284°
2026-05-05 20:20 -2.36244 -45.04223 27215 ft 413 kts 284°
2026-05-05 20:20 -2.35467 -45.06970 27704 ft 416 kts 284°
2026-05-05 20:20 -2.34676 -45.09764 28175 ft 418 kts 284°
2026-05-05 20:20 -2.33880 -45.12572 28626 ft 421 kts 284°
2026-05-05 20:21 -2.33086 -45.15375 29052 ft 423 kts 284°
2026-05-05 20:21 -2.32280 -45.18217 29464 ft 426 kts 284°
2026-05-05 20:21 -2.31468 -45.21078 29860 ft 428 kts 284°
2026-05-05 20:21 -2.30654 -45.23948 30268 ft 429 kts 284°
2026-05-05 20:22 -2.29846 -45.26795 30768 ft 428 kts 284°
2026-05-05 20:22 -2.29044 -45.29620 31266 ft 426 kts 283°
2026-05-05 20:22 -2.28237 -45.32482 31667 ft 426 kts 283°
2026-05-05 20:22 -2.27545 -45.35352 32004 ft 427 kts 279°
2026-05-05 20:23 -2.27023 -45.38283 32343 ft 427 kts 276°
2026-05-05 20:23 -2.26683 -45.41204 32682 ft 427 kts 273°
2026-05-05 20:23 -2.26420 -45.44147 32922 ft 428 kts 272°
2026-05-05 20:24 -2.25906 -45.50108 32948 ft 429 kts 272°
2026-05-05 20:24 -2.25390 -45.56021 32952 ft 429 kts 272°
2026-05-05 20:25 -2.24867 -45.61950 32952 ft 429 kts 272°
2026-05-05 20:25 -2.24343 -45.67867 32953 ft 429 kts 272°
2026-05-05 20:26 -2.23821 -45.73771 32953 ft 429 kts 272°
2026-05-05 20:26 -2.23291 -45.79740 32953 ft 429 kts 272°
2026-05-05 20:27 -2.22765 -45.85664 32953 ft 429 kts 272°
2026-05-05 20:27 -2.22237 -45.91611 32953 ft 429 kts 272°
2026-05-05 20:28 -2.21710 -45.97536 32953 ft 429 kts 272°
2026-05-05 20:28 -2.21183 -46.03461 32953 ft 429 kts 272°
2026-05-05 20:29 -2.20655 -46.09388 32953 ft 429 kts 272°
2026-05-05 20:29 -2.20125 -46.15338 32953 ft 429 kts 272°
2026-05-05 20:30 -2.19598 -46.21262 32953 ft 429 kts 272°
2026-05-05 20:30 -2.19070 -46.27184 32953 ft 429 kts 272°
2026-05-05 20:31 -2.18537 -46.33155 32953 ft 429 kts 272°
2026-05-05 20:31 -2.18008 -46.39082 32953 ft 429 kts 272°
2026-05-05 20:32 -2.17479 -46.45003 32953 ft 429 kts 272°
2026-05-05 20:32 -2.16950 -46.50934 32953 ft 429 kts 272°
2026-05-05 20:33 -2.16420 -46.56868 32953 ft 428 kts 272°
2026-05-05 20:33 -2.15890 -46.62796 32953 ft 428 kts 272°
2026-05-05 20:34 -2.15361 -46.68704 32953 ft 428 kts 272°
2026-05-05 20:34 -2.14831 -46.74632 32953 ft 428 kts 272°
2026-05-05 20:35 -2.14302 -46.80540 32488 ft 422 kts 272°
2026-05-05 20:35 -2.14042 -46.83447 31867 ft 423 kts 272°
2026-05-05 20:35 -2.13780 -46.86382 31082 ft 428 kts 273°
2026-05-05 20:35 -2.13517 -46.89351 29959 ft 440 kts 273°
2026-05-05 20:36 -2.13247 -46.92381 29375 ft 437 kts 273°
2026-05-05 20:36 -2.12976 -46.95381 28943 ft 432 kts 273°
2026-05-05 20:36 -2.12708 -46.98360 28505 ft 426 kts 273°
2026-05-05 20:36 -2.12443 -47.01294 28068 ft 421 kts 273°
2026-05-05 20:37 -2.12180 -47.04213 27632 ft 417 kts 273°
2026-05-05 20:37 -2.11924 -47.07062 27203 ft 413 kts 273°
2026-05-05 20:37 -2.11670 -47.09883 26771 ft 409 kts 273°
2026-05-05 20:37 -2.11415 -47.12721 26335 ft 405 kts 273°
2026-05-05 20:38 -2.11165 -47.15499 25902 ft 402 kts 273°
2026-05-05 20:38 -2.10918 -47.18258 25474 ft 399 kts 273°
2026-05-05 20:38 -2.10673 -47.20991 25045 ft 396 kts 273°
2026-05-05 20:38 -2.10426 -47.23736 24614 ft 393 kts 273°
2026-05-05 20:39 -2.10184 -47.26428 24189 ft 390 kts 273°
2026-05-05 20:39 -2.09941 -47.29135 23760 ft 387 kts 273°
2026-05-05 20:39 -2.09702 -47.31791 23339 ft 384 kts 273°
2026-05-05 20:39 -2.09466 -47.34419 22918 ft 382 kts 273°
2026-05-05 20:40 -2.09226 -47.37072 22495 ft 379 kts 273°
2026-05-05 20:40 -2.08991 -47.39682 22076 ft 377 kts 274°
2026-05-05 20:40 -2.08758 -47.42265 21661 ft 374 kts 274°
2026-05-05 20:40 -2.08522 -47.44865 21241 ft 372 kts 274°
2026-05-05 20:41 -2.08291 -47.47421 20828 ft 370 kts 274°
2026-05-05 20:41 -2.08061 -47.49963 20415 ft 368 kts 274°
2026-05-05 20:41 -2.07834 -47.52489 20004 ft 366 kts 274°
2026-05-05 20:41 -2.07606 -47.55006 19593 ft 363 kts 274°
2026-05-05 20:42 -2.07219 -47.57500 19179 ft 362 kts 282°
2026-05-05 20:42 -2.06509 -47.59916 18770 ft 361 kts 290°
2026-05-05 20:42 -2.05543 -47.62220 18365 ft 359 kts 293°
2026-05-05 20:42 -2.04522 -47.64462 17965 ft 357 kts 294°
2026-05-05 20:43 -2.03472 -47.66750 17556 ft 355 kts 294°
2026-05-05 20:43 -2.02453 -47.68988 17159 ft 353 kts 294°
2026-05-05 20:43 -2.01446 -47.71212 16765 ft 351 kts 294°
2026-05-05 20:43 -2.00457 -47.73399 16377 ft 348 kts 294°
2026-05-05 20:44 -1.99465 -47.75597 15985 ft 346 kts 294°
2026-05-05 20:44 -1.98475 -47.77792 15594 ft 344 kts 294°
2026-05-05 20:44 -1.97500 -47.79955 15208 ft 342 kts 294°
2026-05-05 20:44 -1.96520 -47.82126 14820 ft 340 kts 294°
2026-05-05 20:45 -1.94590 -47.86402 14054 ft 336 kts 294°
2026-05-05 20:45 -1.93633 -47.88523 13675 ft 334 kts 294°
2026-05-05 20:45 -1.92682 -47.90630 13297 ft 332 kts 294°
2026-05-05 20:46 -1.91739 -47.92717 12920 ft 330 kts 294°
2026-05-05 20:46 -1.90787 -47.94826 12541 ft 328 kts 294°
2026-05-05 20:46 -1.89857 -47.96886 12169 ft 327 kts 294°
2026-05-05 20:46 -1.88912 -47.98957 11796 ft 325 kts 294°
2026-05-05 20:47 -1.87987 -48.00982 11439 ft 322 kts 294°
2026-05-05 20:47 -1.87073 -48.02993 11174 ft 315 kts 294°
2026-05-05 20:47 -1.86171 -48.04985 10953 ft 306 kts 294°
2026-05-05 20:47 -1.85313 -48.06881 10881 ft 293 kts 294°
2026-05-05 20:48 -1.84498 -48.08684 10820 ft 280 kts 294°
2026-05-05 20:48 -1.83714 -48.10421 10726 ft 272 kts 294°
2026-05-05 20:48 -1.82937 -48.12141 10414 ft 271 kts 294°
2026-05-05 20:48 -1.82161 -48.13860 10127 ft 269 kts 294°
2026-05-05 20:49 -1.81396 -48.15553 9849 ft 268 kts 294°
2026-05-05 20:49 -1.80633 -48.17243 9573 ft 266 kts 294°
2026-05-05 20:49 -1.79875 -48.18921 9300 ft 264 kts 294°
2026-05-05 20:49 -1.79129 -48.20574 9033 ft 262 kts 294°
2026-05-05 20:50 -1.78381 -48.22231 8765 ft 260 kts 294°
2026-05-05 20:50 -1.77636 -48.23882 8498 ft 258 kts 294°
2026-05-05 20:50 -1.76902 -48.25505 8235 ft 257 kts 294°
2026-05-05 20:50 -1.76166 -48.27134 7971 ft 255 kts 294°
2026-05-05 20:51 -1.75436 -48.28750 7709 ft 254 kts 294°
2026-05-05 20:51 -1.74684 -48.30358 7084 ft 269 kts 297°
2026-05-05 20:51 -1.73760 -48.32034 6545 ft 274 kts 300°
2026-05-05 20:51 -1.72826 -48.33640 6533 ft 266 kts 301°
2026-05-05 20:52 -1.71890 -48.35243 6516 ft 265 kts 301°
2026-05-05 20:52 -1.70967 -48.36824 6494 ft 265 kts 301°
2026-05-05 20:52 -1.70036 -48.38422 6459 ft 265 kts 301°
2026-05-05 20:52 -1.69108 -48.40017 6339 ft 265 kts 301°
2026-05-05 20:53 -1.68178 -48.41618 6198 ft 264 kts 301°
2026-05-05 20:53 -1.67266 -48.43186 6044 ft 264 kts 301°
2026-05-05 20:53 -1.66343 -48.44774 5826 ft 263 kts 301°
2026-05-05 20:53 -1.65426 -48.46351 5580 ft 262 kts 301°
2026-05-05 20:54 -1.64510 -48.47928 5320 ft 261 kts 301°
2026-05-05 20:54 -1.63605 -48.49480 5057 ft 260 kts 301°
2026-05-05 20:54 -1.62686 -48.51046 4789 ft 256 kts 301°
2026-05-05 20:54 -1.61795 -48.52564 4548 ft 251 kts 301°
2026-05-05 20:55 -1.60938 -48.54025 4494 ft 237 kts 301°
2026-05-05 20:55 -1.60134 -48.55390 4475 ft 222 kts 304°
2026-05-05 20:55 -1.59107 -48.56480 4454 ft 210 kts 329°
2026-05-05 20:55 -1.57862 -48.57129 4244 ft 202 kts 338°
2026-05-05 20:56 -1.56565 -48.57690 3898 ft 202 kts 339°
2026-05-05 20:56 -1.55281 -48.58237 3617 ft 198 kts 339°
2026-05-05 20:56 -1.54045 -48.58776 3362 ft 190 kts 339°
2026-05-05 20:56 -1.52880 -48.59296 3123 ft 178 kts 338°
2026-05-05 20:57 -1.51790 -48.59787 2925 ft 165 kts 340°
2026-05-05 20:57 -1.50728 -48.59943 2683 ft 148 kts 20°
2026-05-05 20:57 -1.49838 -48.59480 2719 ft 145 kts 40°
2026-05-05 20:57 -1.49074 -48.58832 2699 ft 143 kts 46°
2026-05-05 20:58 -1.48357 -48.58141 2673 ft 143 kts 48°
2026-05-05 20:58 -1.47651 -48.57436 2484 ft 143 kts 48°
2026-05-05 20:58 -1.46945 -48.56725 2300 ft 142 kts 48°
2026-05-05 20:58 -1.46255 -48.56029 2120 ft 142 kts 48°
2026-05-05 20:59 -1.45556 -48.55324 1936 ft 141 kts 48°
2026-05-05 20:59 -1.44869 -48.54631 1753 ft 141 kts 48°
2026-05-05 20:59 -1.44174 -48.53931 1564 ft 141 kts 48°
2026-05-05 20:59 -1.43489 -48.53239 1377 ft 140 kts 48°
2026-05-05 21:00 -1.42803 -48.52548 1188 ft 140 kts 48°
2026-05-05 21:00 -1.42116 -48.51854 999 ft 139 kts 48°
2026-05-05 21:00 -1.41434 -48.51167 812 ft 139 kts 48°
2026-05-05 21:00 -1.40751 -48.50477 627 ft 138 kts 48°
2026-05-05 21:01 -1.40079 -48.49798 445 ft 138 kts 49°
2026-05-05 21:01 -1.39399 -48.49105 256 ft 138 kts 48°
2026-05-05 21:01 -1.38733 -48.48429 76 ft 137 kts 48°
2026-05-05 21:01 -1.38128 -48.47808 63 ft 103 kts 46°
2026-05-05 21:02 -1.37745 -48.47421 63 ft 53 kts 45°
2026-05-05 21:02 -1.37588 -48.47263 63 ft 22 kts 44°
2026-05-05 21:02 -1.37487 -48.47161 63 ft 19 kts 45°
2026-05-05 21:02 -1.37392 -48.47065 63 ft 18 kts 45°
2026-05-05 21:03 -1.37302 -48.46973 63 ft 18 kts 46°
2026-05-05 21:03 -1.37207 -48.46920 63 ft 13 kts 73°
2026-05-05 21:03 -1.37268 -48.46931 63 ft 12 kts 228°
2026-05-05 21:03 -1.37329 -48.46999 63 ft 13 kts 227°
2026-05-05 21:04 -1.37394 -48.47068 63 ft 14 kts 226°
2026-05-05 21:04 -1.37464 -48.47140 63 ft 14 kts 225°
2026-05-05 21:04 -1.37539 -48.47215 63 ft 15 kts 225°
2026-05-05 21:04 -1.37617 -48.47292 63 ft 15 kts 224°
2026-05-05 21:05 -1.37696 -48.47369 63 ft 16 kts 224°
2026-05-05 21:05 -1.37777 -48.47452 63 ft 16 kts 226°
2026-05-05 21:05 -1.37857 -48.47538 63 ft 16 kts 227°
2026-05-05 21:05 -1.37944 -48.47610 63 ft 15 kts 198°
2026-05-05 21:06 -1.38047 -48.47624 63 ft 14 kts 190°
2026-05-05 21:06 -1.38145 -48.47635 63 ft 13 kts 185°
2026-05-05 21:06 -1.38238 -48.47644 63 ft 13 kts 185°
2026-05-05 21:06 -1.38329 -48.47652 63 ft 12 kts 185°
2026-05-05 21:07 -1.38426 -48.47660 63 ft 16 kts 185°
2026-05-05 21:07 -1.38541 -48.47670 63 ft 17 kts 185°
2026-05-05 21:07 -1.38658 -48.47689 63 ft 17 kts 224°
2026-05-05 21:07 -1.38704 -48.47789 63 ft 16 kts 196°
2026-05-05 21:08 -1.38820 -48.47800 63 ft 17 kts 185°
2026-05-05 21:08 -1.38942 -48.47812 63 ft 17 kts 185°
2026-05-05 21:08 -1.39058 -48.47821 63 ft 16 kts 184°
2026-05-05 21:08 -1.39095 -48.47887 63 ft 5 kts 275°
2026-05-05 21:09 -1.39095 -48.47889 63 ft 0 kts 275°